Location: Newark
(41.9364°N, 2.8061°E)
Time: 15:11:31
(UTC+00:00)

Vanguard 2 - All Passes

Search period start: 26 February 2020 00:00
Search period end: 07 March 2020 00:00
Orbit: 552 x 2939 km, 32.9° (Epoch: 25 February)

Date Brightness Start Highest point End Pass type
(mag) Time Alt. Az. Time Alt. Az. Time Alt. Az.
26 Feb - 01:32:47 10° SW 01:40:31 45° SSE 01:52:58 10° E visible
26 Feb - 03:40:06 10° WSW 03:50:21 57° S 04:06:04 10° ESE visible
26 Feb - 05:48:59 10° W 06:01:19 45° SSW 06:17:28 10° SE visible
26 Feb - 08:00:45 10° W 08:12:06 24° SW 08:24:30 10° S daylight
26 Feb - 23:44:48 10° SSW 23:50:04 24° SE 23:57:32 10° E visible
27 Feb - 01:50:17 10° WSW 01:58:12 49° SSE 02:11:04 10° E visible
27 Feb - 03:57:54 10° W 04:08:13 54° S 04:23:53 10° ESE visible
27 Feb - 06:07:06 10° W 06:19:07 39° SSW 06:34:30 10° SE daylight
27 Feb - 08:20:25 10° WSW 08:29:38 18° SW 08:39:31 10° S daylight
28 Feb - 00:01:45 10° SSW 00:07:26 30° SSE 00:15:58 10° E visible
28 Feb - 02:07:54 10° WSW 02:15:56 52° S 02:29:06 10° ESE visible
28 Feb - 04:15:45 10° W 04:26:05 50° SSW 04:41:33 10° ESE visible
28 Feb - 06:25:25 10° W 06:36:53 32° SSW 06:51:11 10° SSE daylight
28 Feb - 08:42:11 10° WSW 08:47:10 12° SW 08:52:21 10° SSW daylight
29 Feb - 00:18:57 10° SW 00:24:54 36° SSE 00:34:13 10° E visible
29 Feb - 02:25:35 10° WSW 02:33:44 53° S 02:47:04 10° ESE visible
29 Feb - 04:33:40 10° W 04:43:57 45° SSW 04:59:01 10° SE visible
29 Feb - 06:44:03 10° W 06:54:36 26° SSW 07:07:24 10° SSE daylight
29 Feb - 22:32:08 10° S 22:35:09 14° SE 22:38:50 10° ESE night (unlit)
01 Mar - 00:36:21 10° SW 00:42:29 41° SSE 00:52:20 10° E visible
01 Mar - 02:43:20 10° WSW 02:51:34 51° S 03:04:57 10° ESE visible
01 Mar - 04:51:42 10° W 05:01:48 39° SSW 05:16:13 10° SE visible
01 Mar - 07:03:14 10° WSW 07:12:18 20° SW 07:22:53 10° S daylight
01 Mar - 22:48:32 10° SSW 22:52:28 20° SE 22:57:42 10° ESE night (unlit)
02 Mar - 00:53:53 10° WSW 01:00:09 44° SSE 01:10:24 10° E visible
02 Mar - 03:01:07 10° WSW 03:09:25 48° S 03:22:42 10° ESE visible
02 Mar - 05:09:52 10° W 05:19:38 33° SSW 05:33:05 10° SSE visible
02 Mar - 07:23:42 10° WSW 07:29:59 14° SW 07:36:56 10° SSW daylight
02 Mar - 23:05:29 10° SSW 23:09:53 25° SSE 23:16:07 10° E night (unlit)
03 Mar - 01:11:30 10° WSW 01:17:54 46° S 01:28:22 10° ESE visible
03 Mar - 03:18:59 10° W 03:27:16 43° SSW 03:40:16 10° SE visible
03 Mar - 05:28:20 10° WSW 05:37:27 26° SSW 05:49:31 10° SSE visible
03 Mar - 23:22:43 10° SW 23:27:25 31° SSE 23:34:19 10° E night (unlit)
04 Mar - 01:29:11 10° WSW 01:35:40 46° S 01:46:17 10° ESE visible
04 Mar - 03:36:56 10° W 03:45:08 37° SSW 03:57:36 10° SE visible
04 Mar - 05:47:15 10° WSW 05:55:15 20° SSW 06:05:18 10° S visible
04 Mar - 21:36:09 10° SSE 21:37:48 12° SE 21:39:39 10° SE night (unlit)
04 Mar - 23:40:09 10° SW 23:45:01 35° SSE 23:52:23 10° ESE night (unlit)
05 Mar - 01:46:56 10° WSW 01:53:28 44° S 02:04:04 10° ESE visible
05 Mar - 03:55:02 10° WSW 04:02:59 31° SSW 04:14:37 10° SE visible
05 Mar - 06:07:11 10° WSW 06:13:04 14° SSW 06:19:54 10° S daylight
05 Mar - 21:52:20 10° S 21:55:13 16° SSE 21:58:44 10° ESE night (unlit)
05 Mar - 23:57:42 10° WSW 00:02:40 38° S 00:10:22 10° ESE night (unlit)
06 Mar - 02:04:46 10° WSW 02:11:17 39° S 02:21:42 10° SE visible
06 Mar - 04:13:23 10° WSW 04:20:50 25° SSW 04:31:14 10° SSE visible
06 Mar - 22:09:17 10° SSW 22:12:43 21° SSE 22:17:07 10° ESE night (unlit)
